[[{"header":{"parameterUnit":"m.s-1","parameterCategory":1,"la1":30.2991,"la2":30.254,"lo1":-89.0895,"lo2":-89.0444,"dy":0.0017,"dx":0.0017,"nx":28,"ny":28,"refTime":"2025-04-07T03:00:00:Z","depth":0,"parameterNumber":2,"parameterNumberName":"U-component_of_WINDS"},"data":[0,0,0,0,0,0,0,0,0,0,0,0,0,0,0,0,0,0,0,0,0,0,0,0,0,0,0,0,0,0,0,0,0,0,0,0,0,0,0,0,0,0,0,0,0,0,0,0,0,0,0,0,0,0,0,0,0,0,4.2772,4.2774,0,4.2907,4.2909,4.291,4.2905,4.2903,4.2901,4.2899,4.3033,4.3038,4.3043,0,0,0,0,0,0,0,0,0,0,0,0,0,4.2506,4.2511,4.2772,4.2774,4.2775,4.2907,4.2909,4.2911,4.2905,4.2903,4.2901,4.2899,4.3031,4.3037,4.3043,0,0,0,0,0,0,0,0,0,0,0,0,0,4.2629,4.2513,4.2772,4.2789,4.2792,4.2906,4.2909,4.2911,4.2906,4.2903,4.29,4.2898,4.3029,4.3036,4.3044,4.3149,0,0,4.3068,4.3072,0,0,0,0,0,0,0,0,4.2623,4.2639,4.2785,4.2788,4.2791,4.2886,4.2864,4.2991,4.2907,4.2862,4.2899,4.2896,4.2986,4.2997,4.3028,4.3155,4.3161,4.3069,4.3074,4.3077,4.308,0,0,0,0,0,0,0,4.2614,4.2633,4.2825,4.2787,4.2791,4.2789,4.2803,4.2888,4.2938,4.2866,4.2866,4.2882,4.2987,4.3021,4.3031,4.3163,4.3069,4.3076,4.3081,4.3084,4.3385,4.3388,0,0,0,0,0,0,4.2602,4.2626,4.2821,4.2829,4.2698,4.2796,4.2812,4.2859,4.2937,4.2946,4.2884,4.2882,4.3009,4.3022,4.3036,4.3165,4.3077,4.3085,4.3089,4.3381,4.3385,4.3389,0,0,0,0,0,0,4.2597,4.262,4.2816,4.2728,4.2753,4.2803,4.2856,4.2863,4.2897,4.2951,4.296,4.291,4.3007,4.3025,4.3122,4.317,4.3088,4.3095,4.3378,4.3383,4.3387,4.3423,0,0,0,0,0,0,4.2589,4.2618,4.2659,4.2729,4.2758,4.29,4.2859,4.2867,4.2911,4.2908,4.2977,4.2986,4.3006,4.311,4.313,4.3179,4.3102,4.3373,4.338,4.3385,4.3418,4.3429,4.3438,0,0,0,0,0,4.258,4.2662,4.2661,4.2685,4.281,4.2903,4.2919,4.2942,4.2915,4.2956,4.2992,4.2984,4.3162,4.312,4.3142,4.3194,4.337,4.3378,4.3385,4.3414,4.3427,4.3438,0,0,0,0,0,0,4.2594,4.2672,4.2671,4.2779,4.2835,4.2902,4.2955,4.2955,4.3018,4.3013,4.3037,4.3053,4.315,4.3182,4.3134,4.3301,4.3262,4.3274,4.3276,4.3289,4.3299,4.3289,4.3108,0,0,0,0,0,4.2611,4.2681,4.2744,4.2833,4.2861,4.2904,4.2945,4.2958,4.3016,4.3039,4.3081,4.3136,4.3204,4.3249,4.3314,4.3423,4.3438,4.347,4.348,4.3488,4.3498,4.3558,4.3573,4.3413,4.3413,4.3412,0,0,4.2644,4.2695,4.2737,4.2838,4.2882,4.2954,4.2923,4.2999,4.3052,4.305,4.3144,4.3178,4.3241,4.3344,4.3392,4.3374,4.3546,4.3497,4.3503,4.3509,4.3567,4.3582,4.3596,4.3418,4.3417,4.3416,0,0,4.2741,4.2787,4.2867,4.2913,4.2982,4.301,4.3029,4.3097,4.312,4.3216,4.3216,4.3278,4.3395,4.3441,4.3479,4.3596,4.3591,4.3617,4.3668,4.3727,4.374,4.3751,4.3793,4.3808,4.3627,4.3627,4.3627,0,4.2773,4.2882,4.2907,4.2985,4.3029,4.3033,4.3114,4.3157,4.3243,4.3273,4.3252,4.34,4.3443,4.3557,4.3586,4.3617,4.364,4.3608,4.3736,4.3748,4.3759,4.3799,4.3815,4.3629,4.3629,4.3629,4.3628,0,4.2918,4.2994,4.305,4.3136,4.3186,4.3265,4.3302,4.335,4.3359,4.3389,4.3487,4.3539,4.3615,4.3644,4.3653,4.376,4.3747,4.3731,4.3693,4.3776,4.3814,4.383,4.3633,4.3632,4.3631,4.3631,0,0,4.3027,4.3128,4.3148,4.3187,4.3265,4.3323,4.3402,4.3479,4.352,4.358,4.3646,4.3747,4.3733,4.3777,4.3791,4.3843,4.3933,4.382,4.3822,4.3839,4.4055,4.4066,4.4083,4.3931,4.3934,4.3936,4.4049,0,4.3132,4.3274,4.33,4.3424,4.3494,4.3499,4.3568,4.3623,4.3653,4.3716,4.3749,4.382,4.3797,4.3823,4.3875,4.3911,4.3976,4.3903,4.3992,4.3994,4.3975,4.4103,4.4115,4.4219,4.4064,4.4067,4.4069,0,4.3273,4.334,4.3471,4.354,4.357,4.3632,4.3706,4.3767,4.3828,4.3847,4.3897,4.3906,4.3988,4.3947,4.4059,4.4009,4.4047,4.407,4.4075,4.4083,4.4036,4.4115,4.4253,4.4268,4.4092,4.409,4.4089,0,4.334,4.3461,4.3556,4.3589,4.3672,4.3716,4.3752,4.3812,4.3857,4.3921,4.3951,4.4023,4.4062,4.4117,4.4145,4.4113,4.4256,4.4217,4.4273,4.4272,4.4302,4.4299,4.4448,4.4327,4.4327,4.4327,4.4326,0,4.3454,4.3534,4.3587,4.3645,4.3735,4.3764,4.3851,4.3887,4.394,4.4004,4.4013,4.4073,4.4106,4.4171,4.4193,4.4283,4.4301,4.4317,4.4322,4.4317,4.4314,4.4341,4.4334,4.4331,4.433,4.4329,4.4328,0,4.3543,4.3581,4.3685,4.3756,4.3776,4.3839,4.39,4.3956,4.3987,4.4068,4.4089,4.4137,4.4214,4.4248,4.4342,4.4357,4.446,4.4459,4.4439,4.4441,4.4495,4.4489,4.4665,4.4689,4.4553,4.4554,4.4555,0,4.3613,4.3675,4.3754,4.3799,4.3837,4.3909,4.3956,4.3987,4.4036,4.4112,4.4159,4.4237,4.43,4.4423,4.4465,4.4537,4.4539,4.4595,4.4549,4.4542,4.4539,4.4535,4.4541,4.4603,4.4605,4.4606,4.4607,0,4.3734,4.3751,4.3819,4.3895,4.3952,4.4012,4.4071,4.4107,4.4148,4.4202,4.4282,4.4331,4.4429,4.4505,4.4581,4.4617,4.4618,4.4621,4.4638,4.4632,4.4618,4.4626,4.4462,4.4617,4.4616,4.4615,4.4614,4.4614,4.3816,4.3871,4.3936,4.4013,4.4061,4.4117,4.4174,4.4213,4.4281,4.4364,4.4378,4.4463,4.4524,4.4626,4.4665,4.4731,4.4717,4.4741,4.4747,4.4753,4.4756,4.4608,4.4745,4.4745,4.4745,4.4744,4.4744,0,4.3937,4.3979,4.405,4.4134,4.4194,4.4193,4.4259,4.4308,4.4384,4.4442,4.4505,4.4597,4.4672,4.4722,4.4797,4.4841,4.4843,4.4859,4.4856,4.4864,4.4764,4.4742,4.4856,4.4856,4.4856,4.4856,4.4856,4.4856,4.4007,4.4102,4.4126,4.4245,4.4287,4.4372,4.441,4.4461,4.4508,4.4611,4.4674,4.4706,4.4761,4.4841,4.491,4.4922,4.4949,4.4966,4.4978,4.4883,4.4871,4.486,4.484,4.4972,4.4972,4.5072,4.5073,4.5074]},{"header":{"parameterUnit":"m.s-1","parameterCategory":1,"la1":30.2991,"la2":30.254,"lo1":-89.0895,"lo2":-89.0444,"dy":0.0017,"dx":0.0017,"nx":28,"ny":28,"refTime":"2025-04-07T03:00:00:Z","depth":0,"parameterNumber":3,"parameterNumberName":"V-component_of_WINDS"},"data":[0,0,0,0,0,0,0,0,0,0,0,0,0,0,0,0,0,0,0,0,0,0,0,0,0,0,0,0,0,0,0,0,0,0,0,0,0,0,0,0,0,0,0,0,0,0,0,0,0,0,0,0,0,0,0,0,0,0,-5.4952,-5.4954,0,-5.5145,-5.5147,-5.5149,-5.5137,-5.5134,-5.5131,-5.5129,-5.5322,-5.533,-5.5337,0,0,0,0,0,0,0,0,0,0,0,0,0,-5.4568,-5.4575,-5.4951,-5.4954,-5.4956,-5.5144,-5.5147,-5.515,-5.5137,-5.5134,-5.5131,-5.5127,-5.5319,-5.5329,-5.5338,0,0,0,0,0,0,0,0,0,0,0,0,0,-5.4745,-5.4577,-5.4951,-5.4973,-5.4977,-5.5144,-5.5147,-5.515,-5.5138,-5.5134,-5.513,-5.5126,-5.5316,-5.5328,-5.5339,-5.5496,0,0,-5.5375,-5.538,0,0,0,0,0,0,0,0,-5.4735,-5.4759,-5.4967,-5.4972,-5.4976,-5.5113,-5.5083,-5.5266,-5.5139,-5.5077,-5.5129,-5.5124,-5.5255,-5.5272,-5.5317,-5.5505,-5.5513,-5.5376,-5.5383,-5.5388,-5.5391,0,0,0,0,0,0,0,-5.4722,-5.475,-5.5028,-5.497,-5.4976,-5.4972,-5.4992,-5.5117,-5.5187,-5.5082,-5.5081,-5.5105,-5.5257,-5.5306,-5.5322,-5.5516,-5.5376,-5.5386,-5.5393,-5.5398,-5.584,-5.5845,0,0,0,0,0,0,-5.4706,-5.474,-5.5022,-5.5034,-5.4843,-5.4982,-5.5005,-5.5073,-5.5186,-5.5199,-5.5108,-5.5103,-5.5288,-5.5308,-5.5328,-5.5518,-5.5388,-5.5399,-5.5405,-5.5835,-5.5841,-5.5846,0,0,0,0,0,0,-5.4698,-5.4731,-5.5014,-5.4887,-5.4923,-5.4993,-5.507,-5.5079,-5.5128,-5.5206,-5.5218,-5.5146,-5.5286,-5.5312,-5.5454,-5.5525,-5.5404,-5.5415,-5.583,-5.5837,-5.5844,-5.59,0,0,0,0,0,0,-5.4687,-5.4728,-5.479,-5.4889,-5.493,-5.5138,-5.5074,-5.5086,-5.5149,-5.5144,-5.5244,-5.5257,-5.5284,-5.5437,-5.5466,-5.5539,-5.5424,-5.5824,-5.5833,-5.5842,-5.5892,-5.5908,-5.5922,0,0,0,0,0,-5.4673,-5.4797,-5.4793,-5.4827,-5.5008,-5.5142,-5.5165,-5.5196,-5.5154,-5.5216,-5.5266,-5.5253,-5.5513,-5.5452,-5.5484,-5.5562,-5.5819,-5.5831,-5.5841,-5.5885,-5.5905,-5.5922,0,0,0,0,0,0,-5.4703,-5.481,-5.4807,-5.4967,-5.5046,-5.514,-5.5218,-5.5216,-5.5307,-5.5299,-5.5332,-5.5355,-5.5498,-5.5544,-5.5474,-5.5718,-5.566,-5.5678,-5.5683,-5.5702,-5.5717,-5.5702,-5.5433,0,0,0,0,0,-5.4728,-5.483,-5.4918,-5.505,-5.509,-5.5147,-5.5207,-5.5224,-5.5307,-5.5339,-5.54,-5.5479,-5.5578,-5.5643,-5.5738,-5.5899,-5.5919,-5.5968,-5.5983,-5.5995,-5.6009,-5.6096,-5.6119,-5.5882,-5.5882,-5.5881,0,0,-5.4781,-5.4852,-5.4914,-5.5058,-5.5121,-5.5224,-5.5176,-5.5287,-5.5363,-5.5356,-5.5494,-5.5541,-5.5632,-5.5784,-5.5853,-5.5826,-5.6079,-5.6008,-5.6017,-5.6026,-5.611,-5.6132,-5.6152,-5.5889,-5.5888,-5.5886,0,0,-5.493,-5.4995,-5.5112,-5.5177,-5.5274,-5.5311,-5.5339,-5.5435,-5.5466,-5.5606,-5.5602,-5.5692,-5.5863,-5.5928,-5.5983,-5.6156,-5.6148,-5.6186,-5.6264,-5.6348,-5.6367,-5.6384,-5.6445,-5.6466,-5.6201,-5.6201,-5.6201,0,-5.4984,-5.5141,-5.5172,-5.5285,-5.5348,-5.5347,-5.5465,-5.5526,-5.5648,-5.5691,-5.5659,-5.5873,-5.5934,-5.61,-5.6143,-5.6188,-5.622,-5.6175,-5.6362,-5.6379,-5.6395,-5.6453,-5.6476,-5.6205,-5.6204,-5.6204,-5.6204,0,-5.5201,-5.5309,-5.5392,-5.5512,-5.5584,-5.5699,-5.5746,-5.5815,-5.5826,-5.5866,-5.6007,-5.6081,-5.6191,-5.6232,-5.6243,-5.64,-5.638,-5.6355,-5.6297,-5.6421,-5.6477,-5.6499,-5.6211,-5.6209,-5.6208,-5.6207,0,0,-5.5374,-5.551,-5.554,-5.5594,-5.5701,-5.5785,-5.5899,-5.6008,-5.6066,-5.615,-5.6246,-5.639,-5.6368,-5.643,-5.6448,-5.6522,-5.6654,-5.6488,-5.6491,-5.6516,-5.683,-5.6848,-5.6874,-5.6649,-5.6654,-5.6657,-5.6822,0,-5.5534,-5.5738,-5.5769,-5.5948,-5.6048,-5.6049,-5.6148,-5.6223,-5.6264,-5.6353,-5.6397,-5.6499,-5.6462,-5.65,-5.6574,-5.6622,-5.6717,-5.6611,-5.6737,-5.6741,-5.6714,-5.6903,-5.6922,-5.7075,-5.6844,-5.6848,-5.6851,0,-5.5747,-5.5839,-5.6028,-5.6121,-5.6164,-5.6253,-5.6355,-5.6441,-5.6526,-5.655,-5.662,-5.6629,-5.6745,-5.6683,-5.6843,-5.677,-5.6823,-5.6855,-5.6862,-5.6874,-5.6803,-5.692,-5.7124,-5.7147,-5.6886,-5.6883,-5.688,0,-5.5854,-5.6024,-5.6159,-5.6205,-5.6317,-5.638,-5.6429,-5.651,-5.6573,-5.6662,-5.6703,-5.6804,-5.6859,-5.6936,-5.6971,-5.6922,-5.7128,-5.7069,-5.715,-5.715,-5.7193,-5.719,-5.7409,-5.7229,-5.7228,-5.7228,-5.7227,0,-5.6029,-5.6144,-5.6209,-5.6292,-5.642,-5.6455,-5.6581,-5.6628,-5.67,-5.6791,-5.6798,-5.6882,-5.6924,-5.7015,-5.7043,-5.7171,-5.7195,-5.7217,-5.7223,-5.7216,-5.7214,-5.7251,-5.7241,-5.7234,-5.7233,-5.7231,-5.723,0,-5.6169,-5.6217,-5.6365,-5.6459,-5.6485,-5.6576,-5.6655,-5.6735,-5.6775,-5.689,-5.6919,-5.6981,-5.7088,-5.7131,-5.7262,-5.728,-5.7427,-5.7425,-5.7399,-5.7401,-5.7479,-5.7471,-5.773,-5.7765,-5.7562,-5.7564,-5.7565,0,-5.6277,-5.6366,-5.647,-5.6533,-5.6584,-5.6684,-5.6749,-5.6786,-5.6854,-5.6957,-5.7024,-5.7131,-5.7219,-5.7389,-5.7445,-5.7545,-5.7545,-5.7628,-5.7559,-5.755,-5.7545,-5.7539,-5.7548,-5.7641,-5.7643,-5.7644,-5.7646,0,-5.6464,-5.6483,-5.6578,-5.6681,-5.6759,-5.6842,-5.6922,-5.6972,-5.7021,-5.7096,-5.7206,-5.7275,-5.7409,-5.7514,-5.7617,-5.7665,-5.7664,-5.7667,-5.7691,-5.7685,-5.7666,-5.7677,-5.7433,-5.7661,-5.7659,-5.7658,-5.7657,-5.7657,-5.6592,-5.667,-5.6756,-5.6861,-5.6925,-5.7,-5.708,-5.713,-5.7224,-5.7337,-5.7352,-5.747,-5.7552,-5.769,-5.7743,-5.7834,-5.7812,-5.7847,-5.7856,-5.7864,-5.7869,-5.7652,-5.7853,-5.7852,-5.7852,-5.7852,-5.7851,0,-5.6778,-5.6833,-5.6929,-5.7042,-5.7124,-5.7117,-5.7205,-5.7274,-5.7378,-5.7455,-5.7542,-5.7668,-5.7771,-5.7835,-5.7937,-5.7998,-5.8,-5.8024,-5.8019,-5.8031,-5.7883,-5.7851,-5.8021,-5.8021,-5.8021,-5.8021,-5.8021,-5.8021,-5.6885,-5.7018,-5.7047,-5.7212,-5.7266,-5.7383,-5.7434,-5.7502,-5.7564,-5.7705,-5.7791,-5.7833,-5.7904,-5.8012,-5.8105,-5.8121,-5.8158,-5.8184,-5.8198,-5.8059,-5.8041,-5.8024,-5.7995,-5.8192,-5.8192,-5.8338,-5.834,-5.8341]}]]